TimeEDT,TemperatureF,Dew PointF,Humidity,Sea Level PressureIn,VisibilityMPH,Wind Direction,Wind SpeedMPH,Gust SpeedMPH,PrecipitationIn,Events,Conditions,WindDirDegrees,DateUTC
12:19 AM,66.2,66.2,100,30.03,1.0,NW,4.6,-,N/A,,Overcast,320,2012-10-05 04:19:00
12:41 AM,66.2,66.2,100,30.03,3.0,NW,3.5,-,N/A,,Mostly Cloudy,310,2012-10-05 04:41:00
12:56 AM,66.0,66.0,100,30.03,3.0,NW,3.5,-,N/A,,Mostly Cloudy,310,2012-10-05 04:56:00
1:05 AM,66.2,66.2,100,30.03,3.0,NW,3.5,-,N/A,,Mostly Cloudy,310,2012-10-05 05:05:00
1:19 AM,66.2,64.4,94,30.03,3.0,NW,5.8,-,N/A,,Overcast,320,2012-10-05 05:19:00
1:56 AM,66.0,64.9,96,30.03,3.0,NW,4.6,-,N/A,,Overcast,320,2012-10-05 05:56:00
2:56 AM,66.0,64.9,96,30.02,9.0,Calm,Calm,-,N/A,,Overcast,0,2012-10-05 06:56:00
3:56 AM,64.9,64.0,97,30.03,9.0,NW,8.1,-,N/A,,Overcast,310,2012-10-05 07:56:00
4:56 AM,64.9,63.0,93,30.03,10.0,WNW,3.5,-,N/A,,Overcast,300,2012-10-05 08:56:00
5:39 AM,64.4,62.6,94,30.03,3.0,NW,5.8,-,N/A,,Overcast,310,2012-10-05 09:39:00
5:56 AM,64.0,63.0,96,30.04,3.0,NW,5.8,-,N/A,,Overcast,310,2012-10-05 09:56:00
6:05 AM,64.4,62.6,94,30.04,2.0,NW,5.8,-,N/A,,Overcast,310,2012-10-05 10:05:00
6:43 AM,62.6,62.6,100,30.04,1.5,West,4.6,-,N/A,,Overcast,280,2012-10-05 10:43:00
6:56 AM,62.1,61.0,96,30.05,2.0,West,5.8,-,N/A,,Mostly Cloudy,280,2012-10-05 10:56:00
7:21 AM,62.6,60.8,94,30.05,0.5,Calm,Calm,-,N/A,,Scattered Clouds,0,2012-10-05 11:21:00
7:33 AM,62.6,60.8,94,30.04,0.2,Calm,Calm,-,N/A,Fog,Fog,0,2012-10-05 11:33:00
7:56 AM,62.1,61.0,96,30.05,0.2,WNW,4.6,-,N/A,Fog,Fog,300,2012-10-05 11:56:00
8:19 AM,62.6,62.6,100,30.05,1.5,NNW,4.6,-,N/A,,Overcast,330,2012-10-05 12:19:00
8:39 AM,62.6,60.8,94,30.05,3.0,Calm,Calm,-,N/A,,Mostly Cloudy,0,2012-10-05 12:39:00
8:56 AM,64.9,61.0,87,30.05,5.0,Calm,Calm,-,N/A,,Mostly Cloudy,0,2012-10-05 12:56:00
9:20 AM,66.2,60.8,83,30.04,8.0,Calm,Calm,-,N/A,,Partly Cloudy,0,2012-10-05 13:20:00
9:56 AM,69.1,62.1,78,30.04,10.0,North,4.6,-,N/A,,Partly Cloudy,360,2012-10-05 13:56:00
10:56 AM,72.0,61.0,68,30.04,10.0,NW,4.6,-,N/A,,Clear,310,2012-10-05 14:56:00
11:56 AM,73.9,57.9,57,30.03,10.0,WNW,3.5,-,N/A,,Partly Cloudy,290,2012-10-05 15:56:00
12:56 PM,75.9,54.0,46,30.01,10.0,NNW,6.9,-,N/A,,Partly Cloudy,340,2012-10-05 16:56:00
1:56 PM,77.0,54.0,45,29.98,10.0,WNW,6.9,-,N/A,,Partly Cloudy,290,2012-10-05 17:56:00
2:56 PM,79.0,51.1,38,29.96,10.0,NNW,8.1,-,N/A,,Partly Cloudy,330,2012-10-05 18:56:00
3:56 PM,75.9,57.0,52,29.95,10.0,SW,9.2,-,N/A,,Clear,230,2012-10-05 19:56:00
4:56 PM,73.9,55.9,53,29.95,10.0,SW,8.1,-,N/A,,Clear,220,2012-10-05 20:56:00
5:56 PM,71.1,55.0,57,29.96,10.0,SSW,6.9,-,N/A,,Partly Cloudy,210,2012-10-05 21:56:00
6:56 PM,68.0,59.0,73,29.96,10.0,Calm,Calm,-,N/A,,Partly Cloudy,0,2012-10-05 22:56:00
7:56 PM,68.0,60.1,76,29.96,10.0,SSW,4.6,-,N/A,,Partly Cloudy,200,2012-10-05 23:56:00
8:56 PM,66.9,61.0,81,29.96,10.0,SSW,4.6,-,N/A,,Clear,200,2012-10-06 00:56:00
9:56 PM,64.9,60.1,84,29.95,10.0,SSW,3.5,-,N/A,,Clear,210,2012-10-06 01:56:00
10:56 PM,64.0,60.1,87,29.94,10.0,SW,3.5,-,N/A,,Partly Cloudy,230,2012-10-06 02:56:00
11:56 PM,64.0,61.0,90,29.93,7.0,WSW,3.5,-,N/A,,Partly Cloudy,240,2012-10-06 03:56:00